#timestamp,LO_Frequency,Hit,StdDev 
1591628415.1,286047002.7,N
1591628416.0,286047002.7,N
1591628435.8,286046999.2,N
1591628455.7,286047000.3,N
1591628475.5,286047003.4,N
1591628495.3,286047001.5,N
1591628515.2,286047001.8,N
1591628535.0,286046998.9,N
1591628535.9,286046998.9,N
1591628555.8,286047001.0,N
1591628575.6,286047000.6,N
1591628595.4,286046999.8,N
1591628615.3,286047005.9,Y
1591628635.1,286047005.2,P
1591628655.9,286047009.2,P
1591628675.7,286047009.4,N
1591628695.5,286047011.6,Y
1591628715.4,286047005.6,P
1591628735.2,286047002.2,P
1591628755.0,286047000.3,N
1591628755.9,286047000.3,N
1591628775.8,286046996.5,N
1591628795.6,286047002.3,N
1591628815.5,286047002.5,N
1591628835.3,286047003.3,N
1591628855.1,286047004.6,N
1591628875.9,286047004.9,N
1591628895.7,286047004.3,N
1591628915.6,286047003.9,N
1591628935.4,286047002.1,N
1591628955.2,286047007.5,Y
1591628975.1,286047003.5,P
1591628976.0,286047003.5,P
1591628995.8,286047005.8,P
1591629015.6,286047003.2,N
1591629035.5,286047002.1,N
1591629055.3,286047003.9,Y
1591629075.2,286047000.8,P
1591629095.9,286046997.0,N
1591629115.7,286046996.8,N
1591629135.6,286046992.0,N
1591629155.4,286046991.3,N
1591629175.3,286046990.5,N
1591629195.1,286046990.7,N
1591629196.0,286046990.7,N
1591629215.8,286046988.8,N
1591629235.7,286046987.4,N
1591629255.5,286046989.4,N
1591629275.3,286046988.8,N
1591629295.2,286046991.9,N
1591629315.0,286046999.0,N
1591629315.9,286046999.0,N
1591629335.8,286047003.4,N
1591629355.6,286047008.4,N
1591629375.4,286047011.6,N
1591629395.3,286047011.4,N
1591629415.1,286047009.3,N
1591629435.8,286047011.9,N
1591629455.7,286047012.2,N
1591629475.5,286047009.7,N
1591629495.4,286047008.6,N
1591629515.2,286047010.7,N
1591629535.0,286047008.1,N
1591629535.9,286047008.1,N
1591629555.8,286047009.9,N
1591629575.6,286047011.2,N
1591629595.4,286047011.1,N
1591629615.3,286047012.8,N
1591629635.1,286047012.6,N
1591629655.9,286047012.7,N
1591629675.7,286047013.0,N
1591629695.5,286047012.7,N
1591629715.4,286047015.1,N
1591629735.2,286047013.0,N
1591629755.0,286047016.9,N
1591629755.9,286047016.9,N
1591629775.8,286047014.3,N
1591629795.6,286047016.2,N
1591629815.5,286047014.9,N
1591629835.3,286047012.9,N
1591629855.1,286047016.9,Y
1591629875.9,286047008.9,P
1591629895.7,286047006.1,P
1591629915.5,286047007.4,P
1591629935.4,286047004.1,N
1591629955.2,286047001.4,N
1591629975.1,286047002.5,N
1591629976.0,286047002.5,N
1591629995.8,286047002.1,N
1591630015.6,286047005.6,N
1591630035.5,286047001.7,N
1591630055.3,286047002.3,N
1591630075.1,286047002.0,N
1591630095.9,286047003.8,N
1591630115.7,286047003.5,N
1591630135.6,286047005.8,N
1591630155.4,286047007.4,N
1591630175.2,286047008.8,Y
1591630195.1,286047002.9,P
1591630196.0,286047002.9,P
1591630215.8,286047003.7,P
1591630235.7,286047004.3,Y
1591630255.5,286047011.9,P
1591630275.3,286047002.6,N
1591630295.2,286047001.2,N
1591630315.9,286046996.3,N
1591630335.7,286046992.4,N
1591630355.6,286046991.1,N
1591630375.4,286046991.4,N
1591630395.2,286046992.6,N
1591630415.1,286046986.9,N
1591630416.0,286046986.9,N
1591630435.8,286046990.4,N
1591630455.7,286046990.6,N
1591630475.5,286046995.4,N
1591630495.3,286046999.5,N
1591630515.2,286046996.5,N
1591630535.0,286046996.7,N
1591630535.9,286046996.7,N
1591630555.8,286046996.8,N
1591630575.6,286047001.0,N
1591630595.4,286046996.7,N
1591630615.3,286046998.4,N
1591630635.1,286046997.1,N
1591630655.8,286046993.9,N
1591630675.7,286046994.1,N
1591630695.5,286046997.3,N
1591630715.4,286047002.7,N
1591630735.2,286047003.8,N
1591630755.0,286047010.7,N
1591630755.9,286047010.7,N
1591630775.8,286047008.7,N
1591630795.6,286047011.3,N
1591630815.4,286047011.4,N
1591630835.3,286047011.3,N
1591630855.1,286047011.6,N
1591630875.9,286047010.6,N
1591630895.7,286047009.0,N
1591630915.5,286047009.5,N
1591630935.4,286047010.1,N
1591630955.2,286047008.8,N
1591630975.0,286047008.4,N
1591630976.0,286047008.4,N
1591630995.8,286047006.5,N
1591631015.6,286047004.1,N
1591631035.5,286047003.5,N
1591631055.3,286047005.9,N
1591631075.1,286047005.5,N
1591631095.9,286047005.5,N
1591631115.7,286047010.7,N
1591631135.6,286047010.3,N
1591631155.4,286047008.3,N
1591631175.2,286047011.7,N
1591631195.1,286047013.2,N
1591631196.0,286047013.2,N
1591631215.8,286047012.8,N
1591631235.6,286047009.5,N
1591631255.5,286047011.8,Y
1591631275.3,286047000.0,P
1591631295.2,286046999.5,N
1591631315.9,286046995.1,N
1591631335.7,286046995.3,N
1591631355.6,286046999.2,N
1591631375.4,286046998.9,N
1591631395.3,286047000.2,N
1591631415.1,286047003.3,N
1591631416.0,286047003.3,N
1591631435.8,286047007.9,N
1591631455.7,286047012.2,N
1591631475.5,286047013.1,N
1591631495.3,286047013.6,N
1591631515.2,286047015.6,N
1591631535.0,286047018.7,N
1591631535.9,286047018.7,N
1591631555.8,286047018.4,N
1591631575.6,286047020.9,N
1591631595.4,286047023.9,N
1591631615.3,286047029.2,Y
1591631635.1,286047020.7,P
1591631655.9,286047021.5,P
1591631675.7,286047019.1,P
1591631695.5,286047019.0,Y
1591631715.4,286046999.9,P
1591631735.2,286046996.8,N
1591631755.0,286046999.5,N
1591631755.9,286046999.5,N
1591631775.8,286046999.0,N
1591631795.6,286046998.4,N
1591631815.5,286046999.1,N
1591631835.3,286046999.4,N
1591631855.1,286046999.1,N
1591631875.9,286046996.5,N
1591631895.8,286047000.0,N
1591631915.6,286046998.3,N
1591631935.5,286046997.5,N
1591631955.3,286046997.6,N
1591631975.1,286046990.3,N
1591631995.9,286046987.4,N
